When you browse on this site, cookies collect data to enhance your experience and personalize the content and advertising you see.
Visit our Privacy Policy to learn more. By continuing to use the site, you agree to this use of cookies and data.
  • In Czech Republic
  • List of Countries
  • For 7 days
  • Water Temperature
  • Satellite Maps
  • Weather Map
  • Weather Widgets
  • user-avatar
    Login

    Hourly Weather Wien

    Today, 25 June, Tuesday

    Time Temperature Precipitation Wind Pressure Humidity
    00:00 +22°C° 0 mm 1 mps 749 mmHg 82%
    01:00 +19°C° 0 mm 0 mps 749 mmHg 83%
    02:00 +19°C° 0 mm 0 mps 749 mmHg 84%
    03:00 +19°C° 0 mm 0 mps 748 mmHg 85%
    04:00 +20°C° 0 mm 1 mps 748 mmHg 86%
    05:00 +22°C° 0 mm 1 mps 748 mmHg 82%
    06:00 +23°C° 0 mm 1 mps 749 mmHg 78%
    07:00 +24°C° 0 mm 1 mps 749 mmHg 74%
    08:00 +25°C° 0 mm 2 mps 749 mmHg 69%
    09:00 +27°C° 0 mm 3 mps 749 mmHg 64%
    10:00 +28°C° 0 mm 4 mps 749 mmHg 59%
    11:00 +29°C° 0 mm 4 mps 749 mmHg 57%
    12:00 +30°C° 0 mm 4 mps 749 mmHg 54%
    13:00 +32°C° 0 mm 5 mps 749 mmHg 51%
    14:00 +32°C° 0 mm 4 mps 749 mmHg 51%
    15:00 +32°C° 0 mm 4 mps 749 mmHg 51%
    16:00 +33°C° 0 mm 4 mps 749 mmHg 51%
    17:00 +32°C° 0 mm 4 mps 749 mmHg 56%
    18:00 +29°C° 0 mm 4 mps 749 mmHg 61%
    19:00 +28°C° 0 mm 3 mps 749 mmHg 66%
    20:00 +27°C° 0 mm 3 mps 749 mmHg 69%
    21:00 +27°C° 0 mm 3 mps 750 mmHg 71%
    22:00 +26°C° 0 mm 3 mps 750 mmHg 73%
    23:00 +25°C° 0 mm 2 mps 750 mmHg 76%

    Tomorrow, 26 June, Wednesday

    Time Temperature Precipitation Wind Pressure Humidity
    00:00 +24°C° 0 mm 2 mps 750 mmHg 79%
    01:00 +24°C° 0 mm 2 mps 750 mmHg 83%
    02:00 +23°C° 0 mm 2 mps 750 mmHg 84%
    03:00 +23°C° 0 mm 2 mps 750 mmHg 86%
    04:00 +21°C° 0 mm 2 mps 749 mmHg 88%
    05:00 +24°C° 0 mm 2 mps 750 mmHg 83%
    06:00 +25°C° 0 mm 2 mps 750 mmHg 78%
    07:00 +26°C° 0 mm 2 mps 750 mmHg 73%
    08:00 +28°C° 0 mm 2 mps 750 mmHg 67%
    09:00 +30°C° 0 mm 3 mps 750 mmHg 61%
    10:00 +31°C° 0 mm 3 mps 750 mmHg 55%
    11:00 +33°C° 0 mm 3 mps 750 mmHg 51%
    12:00 +34°C° 0 mm 3 mps 750 mmHg 48%
    13:00 +35°C° 0 mm 3 mps 749 mmHg 45%
    14:00 +36°C° 0 mm 3 mps 749 mmHg 45%
    15:00 +36°C° 0 mm 2 mps 749 mmHg 45%
    16:00 +36°C° 0 mm 2 mps 748 mmHg 45%
    17:00 +34°C° 0 mm 2 mps 748 mmHg 51%
    18:00 +32°C° 0 mm 2 mps 748 mmHg 57%
    19:00 +30°C° 0 mm 1 mps 748 mmHg 63%
    20:00 +29°C° 0 mm 1 mps 748 mmHg 66%
    21:00 +28°C° 0 mm 1 mps 748 mmHg 69%
    22:00 +27°C° 0 mm 1 mps 748 mmHg 72%
    23:00 +27°C° 0 mm 1 mps 748 mmHg 72%

    Day after tomorrow, 27 June, Thursday

    Time Temperature Precipitation Wind Pressure Humidity
    00:00 +26°C° 0 mm 1 mps 748 mmHg 71%
    01:00 +26°C° 0 mm 1 mps 747 mmHg 70%
    02:00 +25°C° 0 mm 1 mps 747 mmHg 69%
    03:00 +25°C° 0 mm 1 mps 747 mmHg 68%
    04:00 +25°C° 0 mm 2 mps 747 mmHg 67%
    05:00 +26°C° 0 mm 3 mps 747 mmHg 68%
    06:00 +26°C° 0 mm 4 mps 747 mmHg 68%
    07:00 +27°C° 0 mm 5 mps 747 mmHg 69%
    08:00 +28°C° 0 mm 5 mps 747 mmHg 66%
    09:00 +29°C° 0 mm 5 mps 747 mmHg 63%
    10:00 +30°C° 0 mm 5 mps 747 mmHg 60%
    11:00 +30°C° 0 mm 5 mps 746 mmHg 59%
    12:00 +30°C° 0 mm 6 mps 746 mmHg 57%
    13:00 +30°C° 0 mm 6 mps 746 mmHg 55%
    14:00 +30°C° 0 mm 6 mps 746 mmHg 53%
    15:00 +30°C° 0 mm 6 mps 746 mmHg 51%
    16:00 +29°C° 0 mm 6 mps 746 mmHg 49%
    17:00 +28°C° 0 mm 6 mps 746 mmHg 48%
    18:00 +26°C° 0 mm 5 mps 746 mmHg 47%
    19:00 +23°C° 0 mm 5 mps 746 mmHg 46%
    20:00 +22°C° 0 mm 4 mps 746 mmHg 48%
    21:00 +21°C° 0 mm 4 mps 746 mmHg 51%
    22:00 +20°C° 0 mm 3 mps 747 mmHg 53%
    23:00 +19°C° 0 mm 3 mps 747 mmHg 55%

    28 June, Friday

    Time Temperature Precipitation Wind Pressure Humidity
    00:00 +18°C° 0 mm 3 mps 747 mmHg 56%
    01:00 +18°C° 0 mm 3 mps 747 mmHg 57%
    02:00 +17°C° 0 mm 3 mps 747 mmHg 60%
    03:00 +17°C° 0 mm 3 mps 747 mmHg 62%
    04:00 +15°C° 0 mm 4 mps 747 mmHg 64%
    05:00 +17°C° 0 mm 4 mps 747 mmHg 64%
    06:00 +18°C° 0 mm 4 mps 747 mmHg 64%
    07:00 +19°C° 0 mm 4 mps 747 mmHg 64%
    08:00 +21°C° 0 mm 4 mps 747 mmHg 59%
    09:00 +22°C° 0 mm 5 mps 747 mmHg 55%
    10:00 +23°C° 0 mm 5 mps 747 mmHg 51%
    11:00 +25°C° 0 mm 5 mps 747 mmHg 48%
    12:00 +26°C° 0 mm 5 mps 746 mmHg 46%
    13:00 +27°C° 0 mm 5 mps 746 mmHg 44%
    14:00 +27°C° 0 mm 5 mps 746 mmHg 44%
    15:00 +27°C° 0 mm 5 mps 746 mmHg 44%
    16:00 +27°C° 0 mm 5 mps 746 mmHg 44%
    17:00 +26°C° 0 mm 5 mps 746 mmHg 49%
    18:00 +23°C° 0 mm 4 mps 746 mmHg 53%
    19:00 +22°C° 0 mm 4 mps 746 mmHg 57%
    20:00 +21°C° 0 mm 3 mps 746 mmHg 60%
    21:00 +20°C° 0 mm 3 mps 747 mmHg 63%
    22:00 +18°C° 0 mm 2 mps 747 mmHg 66%
    23:00 +18°C° 0 mm 2 mps 747 mmHg 69%

    29 June, Saturday

    Time Temperature Precipitation Wind Pressure Humidity
    00:00 +17°C° 0 mm 2 mps 747 mmHg 73%
    01:00 +17°C° 0 mm 2 mps 747 mmHg 76%
    02:00 +16°C° 0 mm 2 mps 747 mmHg 77%
    03:00 +16°C° 0 mm 2 mps 747 mmHg 78%
    04:00 +15°C° 0 mm 2 mps 747 mmHg 80%
    05:00 +17°C° 0 mm 2 mps 747 mmHg 74%
    06:00 +18°C° 0 mm 2 mps 747 mmHg 69%
    07:00 +19°C° 0 mm 2 mps 747 mmHg 64%
    08:00 +21°C° 0 mm 2 mps 748 mmHg 56%
    09:00 +23°C° 0 mm 2 mps 748 mmHg 49%
    10:00 +24°C° 0 mm 2 mps 748 mmHg 41%
    11:00 +25°C° 0 mm 3 mps 748 mmHg 40%
    12:00 +26°C° 0 mm 3 mps 747 mmHg 38%
    13:00 +27°C° 0 mm 3 mps 747 mmHg 37%
    14:00 +27°C° 0 mm 3 mps 747 mmHg 38%
    15:00 +27°C° 0 mm 3 mps 747 mmHg 39%
    16:00 +27°C° 0 mm 3 mps 746 mmHg 40%
    17:00 +26°C° 0 mm 3 mps 746 mmHg 46%
    18:00 +25°C° 0 mm 2 mps 746 mmHg 51%
    19:00 +23°C° 0 mm 2 mps 746 mmHg 56%
    20:00 +21°C° 0 mm 2 mps 747 mmHg 57%
    21:00 +21°C° 0 mm 1 mps 747 mmHg 58%
    22:00 +20°C° 0 mm 1 mps 747 mmHg 59%
    23:00 +20°C° 0 mm 1 mps 747 mmHg 61%

    30 June, Sunday

    Time Temperature Precipitation Wind Pressure Humidity
    00:00 +19°C° 0 mm 1 mps 747 mmHg 63%
    01:00 +19°C° 0 mm 1 mps 747 mmHg 64%
    02:00 +18°C° 0 mm 1 mps 747 mmHg 66%
    03:00 +18°C° 0 mm 1 mps 747 mmHg 68%
    04:00 +16°C° 0 mm 1 mps 747 mmHg 69%
    05:00 +17°C° 0 mm 2 mps 747 mmHg 67%
    06:00 +18°C° 0 mm 2 mps 747 mmHg 65%
    07:00 +20°C° 0 mm 3 mps 747 mmHg 63%
    08:00 +21°C° 0 mm 3 mps 747 mmHg 59%
    09:00 +23°C° 0 mm 4 mps 747 mmHg 55%
    10:00 +26°C° 0 mm 5 mps 747 mmHg 51%
    11:00 +27°C° 0 mm 5 mps 746 mmHg 49%
    12:00 +28°C° 0 mm 5 mps 746 mmHg 46%
    13:00 +30°C° 0 mm 5 mps 746 mmHg 43%
    14:00 +30°C° 0 mm 6 mps 745 mmHg 44%
    15:00 +30°C° 0 mm 6 mps 745 mmHg 45%
    16:00 +30°C° 0 mm 6 mps 745 mmHg 46%
    17:00 +29°C° 0 mm 6 mps 745 mmHg 51%
    18:00 +27°C° 0 mm 5 mps 745 mmHg 56%
    19:00 +26°C° 0 mm 5 mps 745 mmHg 61%
    20:00 +25°C° 0 mm 4 mps 745 mmHg 63%
    21:00 +23°C° 0 mm 4 mps 745 mmHg 66%
    22:00 +22°C° 0 mm 3 mps 745 mmHg 69%
    23:00 +22°C° 0 mm 3 mps 745 mmHg 71%
    Show more